Flag for Kazakhstan Weather past 2 weeks in Qyzylorda, Kazakhstan

Now
36 °F

Sunny.


Feels Like: 25 °F
Forecast: 28 / 44 °F
Wind: 17 mph from Northeast

Location: Kzyl-Orda

Current Time: Feb 27, 2015 at 1:47:25 PM

Latest Report: Feb 27, 2015 at 1:00 PM


Visibility: 10 mi

Pressure: 30.60 "Hg

Humidity: 60%

Dew point: 23 °F

Location of QyzylordaLocation

Historic Weather in Qyzylorda — Graph

°F

Qyzylorda temperature yesterday

Maximum temperature yesterday: 43 °F (at 4:00 PM)
Minimum temperature yesterday: 25 °F (at 7:30 AM)
Average temperature yesterday: 34 °F

Past Weeks' High & Low Weather Summary

 TemperatureHumidityPressure
High54 °F (Feb 20, 3:30 PM)100% (Feb 12, 12:00 PM)30.60 "Hg (Feb 12, 12:00 PM)
Low19 °F (Feb 13, 8:30 AM)31% (Feb 22, 4:30 PM)29.98 "Hg (Feb 12, 12:00 PM)
Average33 °F76%30.20 "Hg
* Reported Feb 12 12:00 Noon — Feb 27 12:30 PM, Qyzylorda, Weather by CustomWeather, © 2015

Note: Actual official high and low records may vary slightly from our data, if they occured in-between our weather recording intervals... More about our weather records

Advertising

Qyzylorda weather history for previous 24 hours

 ConditionsComfort  
Time TempWeatherWind HumidityBarometerVisibility
12:30 PM
Fri, Feb 27
36 °FSunny.15 mph60%30.60 "Hg10 mi
12:00 PM34 °FSunny.17 mph65%30.60 "Hg10 mi
11:30 AM32 °FSunny.15 mph69%30.60 "Hg10 mi
11:00 AM30 °FSunny.15 mph75%30.60 "Hg10 mi
10:30 AM28 °FSunny.15 mph80%30.57 "Hg10 mi
9:30 AM27 °FSunny.13 mph80%30.57 "Hg10 mi
9:00 AM25 °FClear.13 mph86%30.57 "Hg10 mi
8:30 AM25 °FClear.13 mph86%30.57 "Hg10 mi
8:00 AM25 °FClear.10 mph86%30.54 "Hg10 mi
7:30 AM25 °FClear.13 mph86%30.54 "Hg10 mi
7:00 AM27 °FClear.10 mph80%30.54 "Hg10 mi
6:00 AM27 °FPassing clouds.13 mph86%30.54 "HgN/A
5:00 AM27 °FClear.10 mph86%30.54 "Hg10 mi
4:00 AM28 °FClear.13 mph80%30.54 "Hg10 mi
3:00 AM28 °FClear.13 mph80%30.54 "Hg10 mi
2:00 AM30 °FClear.13 mph75%30.51 "Hg10 mi
1:00 AM30 °FClear.13 mph75%30.51 "Hg10 mi
12:00 AM32 °FClear.13 mph69%30.51 "Hg10 mi
11:00 PM
Thu, Feb 26
32 °FClear.10 mph69%30.51 "Hg10 mi
10:30 PM32 °FClear.13 mph69%30.51 "Hg10 mi
10:00 PM34 °FClear.13 mph60%30.51 "Hg10 mi
9:30 PM36 °FClear.13 mph56%30.51 "Hg10 mi
9:00 PM36 °FClear.13 mph56%30.51 "Hg10 mi
8:30 PM36 °FClear.10 mph60%30.48 "Hg10 mi
8:00 PM37 °FSunny.10 mph52%30.48 "Hg10 mi
7:30 PM37 °FSunny.10 mph52%30.48 "Hg10 mi
7:00 PM41 °FSunny.17 mph45%30.45 "Hg10 mi
6:30 PM41 °FSunny.15 mph45%30.45 "Hg10 mi
6:00 PM41 °FSunny.15 mph45%30.45 "Hg10 mi
5:30 PM43 °FSunny.20 mph42%30.45 "Hg10 mi
5:00 PM43 °FSunny.20 mph42%30.45 "Hg10 mi
4:30 PM43 °FSunny.20 mph42%30.45 "Hg10 mi
4:00 PM43 °FSunny.20 mph42%30.45 "Hg10 mi
3:30 PM41 °FSunny.20 mph45%30.45 "Hg10 mi
3:00 PM41 °FSunny.22 mph45%30.45 "Hg10 mi
2:30 PM41 °FSunny.20 mph49%30.45 "Hg10 mi
2:00 PM39 °FPassing clouds.20 mph52%30.45 "HgN/A
1:30 PM39 °FSunny.20 mph56%30.45 "Hg10 mi
1:00 PM37 °FPassing clouds.20 mph60%30.45 "HgN/A
Weather by CustomWeather, © 2015

See weather overviewHow to use our weather pages